| time (UTC) | temp F | wind direction | speed MPH | gust MPH | rain 1hr in | rain 24hr in | rain mn in | humidity % | barometer mb |
| 20260906221144 | 78 | 91 | 0.0 | 0.0 | 0.00 | 0.00 | 0.00 | 45 | 1024.7 |
| 20260906220640 | 78 | 47 | 0.0 | 1.0 | 0.00 | 0.00 | 0.00 | 45 | 1024.4 |
| 20260906220136 | 78 | 47 | 0.0 | 0.0 | 0.00 | 0.00 | 0.00 | 44 | 1024.7 |
| 20260906215634 | 78 | 47 | 0.0 | 0.0 | 0.00 | 0.00 | 0.00 | 45 | 1024.8 |
| 20260906215133 | 78 | 47 | 0.0 | 1.0 | 0.00 | 0.00 | 0.00 | 45 | 1024.8 |
| 20260906214632 | 79 | 38 | 1.0 | 2.0 | 0.00 | 0.00 | 0.00 | 44 | 1024.9 |
| 20260906214127 | 79 | 36 | 2.0 | 3.0 | 0.00 | 0.00 | 0.00 | 43 | 1024.9 |
| 20260906213626 | 80 | 54 | 0.0 | 1.0 | 0.00 | 0.00 | 0.00 | 43 | 1025.3 |
| 20260906213120 | 79 | 36 | 0.0 | 1.0 | 0.00 | 0.00 | 0.00 | 44 | 1024.9 |
| 20260906212618 | 79 | 49 | 1.0 | 1.0 | 0.00 | 0.00 | 0.00 | 44 | 1024.8 |
| 20260906212114 | 79 | 119 | 0.0 | 1.0 | 0.00 | 0.00 | 0.00 | 44 | 1025.3 |
| 20260906211613 | 79 | 240 | 1.0 | 1.0 | 0.00 | 0.00 | 0.00 | 44 | 1025.1 |
| 20260906211109 | 79 | 70 | 0.0 | 2.0 | 0.00 | 0.00 | 0.00 | 43 | 1025.3 |
| 20260906210605 | 80 | 67 | 0.0 | 1.0 | 0.00 | 0.00 | 0.00 | 42 | 1025.5 |
| 20260906210059 | 80 | 21 | 1.0 | 2.0 | 0.00 | 0.00 | 0.00 | 42 | 1025.5 |
| 20260906205554 | 78 | 47 | 0.0 | 1.0 | 0.00 | 0.00 | 0.00 | 45 | 1025.8 |
| 20260906205051 | 78 | 61 | 0.0 | 0.0 | 0.00 | 0.00 | 0.00 | 45 | 1025.6 |
| 20260906204550 | 78 | 254 | 1.0 | 2.0 | 0.00 | 0.00 | 0.00 | 45 | 1025.5 |
| 20260906204045 | 78 | 7 | 1.0 | 2.0 | 0.00 | 0.00 | 0.00 | 43 | 1025.5 |
| 20260906203544 | 78 | 81 | 1.0 | 2.0 | 0.00 | 0.00 | 0.00 | 42 | 1025.6 |
| 20260906203039 | 78 | 333 | 1.0 | 2.0 | 0.00 | 0.00 | 0.00 | 42 | 1025.6 |
| 20260906202536 | 78 | 341 | 2.0 | 3.0 | 0.00 | 0.00 | 0.00 | 43 | 1025.6 |
| 20260906202031 | 78 | 10 | 2.0 | 6.0 | 0.00 | 0.00 | 0.00 | 42 | 1025.8 |
| 20260906201530 | 79 | 58 | 0.0 | 5.0 | 0.00 | 0.00 | 0.00 | 43 | 1025.8 |
| 20260906201030 | 79 | 8 | 2.0 | 6.0 | 0.00 | 0.00 | 0.00 | 43 | 1025.8 |
| 20260906200526 | 79 | 65 | 0.0 | 2.0 | 0.00 | 0.00 | 0.00 | 43 | 1025.5 |
| 20260906200022 | 79 | 33 | 3.0 | 5.0 | 0.00 | 0.00 | 0.00 | 42 | 1025.5 |
| 20260906195517 | 80 | 88 | 0.0 | 2.0 | 0.00 | 0.00 | 0.00 | 40 | 1025.6 |
| 20260906195014 | 81 | 12 | 5.0 | 7.0 | 0.00 | 0.00 | 0.00 | 41 | 1025.5 |
| 20260906194509 | 80 | 311 | 1.0 | 5.0 | 0.00 | 0.00 | 0.00 | 37 | 1025.8 |
| 20260906194005 | 80 | 63 | 0.0 | 1.0 | 0.00 | 0.00 | 0.00 | 38 | 1025.6 |
| 20260906193504 | 81 | 58 | 1.0 | 5.0 | 0.00 | 0.00 | 0.00 | 37 | 1025.6 |
| 20260906193000 | 82 | 186 | 1.0 | 3.0 | 0.00 | 0.00 | 0.00 | 36 | 1025.9 |
| 20260906192455 | 81 | 156 | 1.0 | 3.0 | 0.00 | 0.00 | 0.00 | 36 | 1026.0 |
| 20260906191954 | 80 | 85 | 1.0 | 9.0 | 0.00 | 0.00 | 0.00 | 36 | 1026.0 |
| 20260906191449 | 81 | 6 | 2.0 | 5.0 | 0.00 | 0.00 | 0.00 | 36 | 1026.1 |
| 20260906190948 | 81 | 344 | 4.0 | 6.0 | 0.00 | 0.00 | 0.00 | 36 | 1026.1 |
| 20260906190447 | 81 | 96 | 0.0 | 6.0 | 0.00 | 0.00 | 0.00 | 35 | 1026.2 |
| 20260906185942 | 82 | 37 | 3.0 | 3.0 | 0.00 | 0.00 | 0.00 | 35 | 1026.1 |
| 20260906185441 | 80 | 276 | 3.0 | 7.0 | 0.00 | 0.00 | 0.00 | 37 | 1026.1 |
| 20260906184940 | 80 | 358 | 5.0 | 7.0 | 0.00 | 0.00 | 0.00 | 37 | 1026.2 |
| 20260906184436 | 80 | 14 | 3.0 | 5.0 | 0.00 | 0.00 | 0.00 | 36 | 1026.4 |
| 20260906183931 | 80 | 314 | 3.0 | 5.0 | 0.00 | 0.00 | 0.00 | 37 | 1026.5 |
| 20260906183427 | 79 | 312 | 1.0 | 2.0 | 0.00 | 0.00 | 0.00 | 39 | 1026.5 |
| 20260906182922 | 79 | 62 | 1.0 | 2.0 | 0.00 | 0.00 | 0.00 | 37 | 1026.7 |
| 20260906182418 | 79 | 327 | 4.0 | 6.0 | 0.00 | 0.00 | 0.00 | 37 | 1026.9 |
| 20260906181914 | 80 | 44 | 1.0 | 5.0 | 0.00 | 0.00 | 0.00 | 38 | 1026.9 |
| 20260906181409 | 79 | 348 | 5.0 | 7.0 | 0.00 | 0.00 | 0.00 | 38 | 1027.1 |
| 20260906180905 | 79 | 314 | 4.0 | 6.0 | 0.00 | 0.00 | 0.00 | 38 | 1026.9 |
| 20260906180359 | 79 | 247 | 5.0 | 6.0 | 0.00 | 0.00 | 0.00 | 38 | 1027.0 |
| 20260906175857 | 79 | 31 | 2.0 | 6.0 | 0.00 | 0.00 | 0.00 | 37 | 1027.0 |
| 20260906175352 | 79 | 354 | 3.0 | 3.0 | 0.00 | 0.00 | 0.00 | 38 | 1027.5 |
| 20260906174851 | 78 | 161 | 3.0 | 8.0 | 0.00 | 0.00 | 0.00 | 39 | 1027.5 |
| 20260906174350 | 78 | 290 | 3.0 | 5.0 | 0.00 | 0.00 | 0.00 | 40 | 1027.5 |
| 20260906173845 | 79 | 286 | 2.0 | 5.0 | 0.00 | 0.00 | 0.00 | 41 | 1027.6 |
| 20260906173341 | 78 | 205 | 2.0 | 5.0 | 0.00 | 0.00 | 0.00 | 40 | 1027.5 |
| 20260906172840 | 78 | 22 | 2.0 | 5.0 | 0.00 | 0.00 | 0.00 | 41 | 1027.6 |
| 20260906172337 | 77 | 307 | 2.0 | 6.0 | 0.00 | 0.00 | 0.00 | 41 | 1027.7 |
| 20260906171832 | 77 | 2 | 5.0 | 8.0 | 0.00 | 0.00 | 0.00 | 41 | 1027.7 |
| 20260906171326 | 78 | 64 | 0.0 | 2.0 | 0.00 | 0.00 | 0.00 | 41 | 1027.6 |
| 20260906170822 | 78 | 16 | 2.0 | 6.0 | 0.00 | 0.00 | 0.00 | 42 | 1027.8 |
| 20260906170318 | 78 | 77 | 0.0 | 3.0 | 0.00 | 0.00 | 0.00 | 44 | 1027.9 |
| 20260906165814 | 77 | 65 | 2.0 | 5.0 | 0.00 | 0.00 | 0.00 | 44 | 1028.1 |
| 20260906165314 | 77 | 358 | 3.0 | 7.0 | 0.00 | 0.00 | 0.00 | 45 | 1027.8 |
| 20260906164813 | 77 | 7 | 2.0 | 5.0 | 0.00 | 0.00 | 0.00 | 45 | 1027.5 |
| 20260906164308 | 76 | 65 | 0.0 | 3.0 | 0.00 | 0.00 | 0.00 | 47 | 1027.6 |
| 20260906163804 | 76 | 55 | 0.0 | 2.0 | 0.00 | 0.00 | 0.00 | 49 | 1027.7 |
| 20260906163301 | 77 | 154 | 2.0 | 2.0 | 0.00 | 0.00 | 0.00 | 47 | 1027.8 |
| 20260906162757 | 76 | 29 | 2.0 | 2.0 | 0.00 | 0.00 | 0.00 | 49 | 1027.9 |
| 20260906162251 | 76 | 53 | 0.0 | 2.0 | 0.00 | 0.00 | 0.00 | 51 | 1027.8 |
| 20260906161746 | 76 | 26 | 3.0 | 6.0 | 0.00 | 0.00 | 0.00 | 51 | 1027.7 |
| 20260906161245 | 75 | 29 | 1.0 | 6.0 | 0.00 | 0.00 | 0.00 | 52 | 1027.8 |
| 20260906160744 | 75 | 67 | 0.0 | 2.0 | 0.00 | 0.00 | 0.00 | 52 | 1028.2 |
| 20260906160244 | 76 | 29 | 3.0 | 7.0 | 0.00 | 0.00 | 0.00 | 52 | 1027.8 |
| 20260906155741 | 75 | 65 | 1.0 | 1.0 | 0.00 | 0.00 | 0.00 | 50 | 1027.9 |
| 20260906155236 | 75 | 275 | 2.0 | 2.0 | 0.00 | 0.00 | 0.00 | 51 | 1027.7 |
| 20260906154732 | 74 | 31 | 0.0 | 3.0 | 0.00 | 0.00 | 0.00 | 51 | 1027.7 |
| 20260906154227 | 74 | 303 | 2.0 | 3.0 | 0.00 | 0.00 | 0.00 | 50 | 1027.5 |
| 20260906153725 | 74 | 51 | 0.0 | 2.0 | 0.00 | 0.00 | 0.00 | 51 | 1027.5 |
| 20260906153220 | 74 | 49 | 1.0 | 2.0 | 0.00 | 0.00 | 0.00 | 50 | 1027.5 |
| 20260906152714 | 73 | 25 | 3.0 | 3.0 | 0.00 | 0.00 | 0.00 | 49 | 1027.6 |
| 20260906152210 | 74 | 47 | 1.0 | 2.0 | 0.00 | 0.00 | 0.00 | 48 | 1027.7 |
| 20260906151703 | 73 | 64 | 0.0 | 1.0 | 0.00 | 0.00 | 0.00 | 47 | 1027.7 |
| 20260906151200 | 72 | 64 | 1.0 | 1.0 | 0.00 | 0.00 | 0.00 | 47 | 1027.9 |
| 20260906150655 | 70 | 61 | 0.0 | 2.0 | 0.00 | 0.00 | 0.00 | 53 | 1027.9 |
| 20260906150150 | 70 | 74 | 0.0 | 1.0 | 0.00 | 0.00 | 0.00 | 54 | 1027.8 |
| 20260906145648 | 68 | 6 | 2.0 | 3.0 | 0.00 | 0.00 | 0.00 | 55 | 1027.8 |
| 20260906145143 | 68 | 36 | 1.0 | 2.0 | 0.00 | 0.00 | 0.00 | 54 | 1027.9 |
| 20260906144637 | 66 | 81 | 0.0 | 0.0 | 0.00 | 0.00 | 0.00 | 56 | 1027.8 |
| 20260906144138 | 64 | 71 | 0.0 | 1.0 | 0.00 | 0.00 | 0.00 | 58 | 1028.2 |
| 20260906143637 | 63 | 121 | 1.0 | 1.0 | 0.00 | 0.00 | 0.00 | 61 | 1027.9 |
| 20260906143135 | 62 | 193 | 1.0 | 1.0 | 0.00 | 0.00 | 0.00 | 61 | 1028.1 |
| 20260906142633 | 63 | 149 | 1.0 | 1.0 | 0.00 | 0.00 | 0.00 | 60 | 1027.9 |
| 20260906142129 | 63 | 57 | 0.0 | 0.0 | 0.00 | 0.00 | 0.00 | 59 | 1027.8 |
| 20260906141627 | 63 | 40 | 0.0 | 0.0 | 0.00 | 0.00 | 0.00 | 59 | 1027.6 |
| 20260906141123 | 62 | 128 | 0.0 | 1.0 | 0.00 | 0.00 | 0.00 | 60 | 1027.8 |
| 20260906140623 | 61 | 198 | 1.0 | 1.0 | 0.00 | 0.00 | 0.00 | 61 | 1027.6 |
| 20260906140123 | 60 | 227 | 1.0 | 1.0 | 0.00 | 0.00 | 0.00 | 63 | 1027.6 |
| 20260906135619 | 60 | 203 | 1.0 | 1.0 | 0.00 | 0.00 | 0.00 | 64 | 1028.1 |
| 20260906135116 | 59 | 215 | 0.0 | 1.0 | 0.00 | 0.00 | 0.00 | 65 | 1027.6 |
| 20260906134611 | 58 | 217 | 1.0 | 1.0 | 0.00 | 0.00 | 0.00 | 65 | 1027.9 |
| 20260906134106 | 58 | 194 | 1.0 | 1.0 | 0.00 | 0.00 | 0.00 | 67 | 1027.9 |
| 20260906133602 | 58 | 136 | 1.0 | 1.0 | 0.00 | 0.00 | 0.00 | 68 | 1027.8 |
| 20260906133057 | 57 | 156 | 0.0 | 1.0 | 0.00 | 0.00 | 0.00 | 68 | 1027.8 |
| 20260906132552 | 57 | 152 | 1.0 | 1.0 | 0.00 | 0.00 | 0.00 | 69 | 1028.1 |
| 20260906132048 | 57 | 139 | 0.0 | 1.0 | 0.00 | 0.00 | 0.00 | 70 | 1027.5 |
| 20260906131543 | 57 | 210 | 1.0 | 1.0 | 0.00 | 0.00 | 0.00 | 69 | 1027.8 |
| 20260906131038 | 57 | 120 | 0.0 | 1.0 | 0.00 | 0.00 | 0.00 | 68 | 1027.7 |
| 20260906130537 | 57 | 116 | 0.0 | 0.0 | 0.00 | 0.00 | 0.00 | 68 | 1027.7 |
| 20260906130033 | 57 | 111 | 0.0 | 1.0 | 0.00 | 0.00 | 0.00 | 68 | 1027.7 |
| 20260906125531 | 57 | 127 | 0.0 | 1.0 | 0.00 | 0.00 | 0.00 | 67 | 1027.7 |
| 20260906125031 | 57 | 147 | 0.0 | 1.0 | 0.00 | 0.00 | 0.00 | 67 | 1027.6 |
| 20260906124526 | 57 | 187 | 1.0 | 1.0 | 0.00 | 0.00 | 0.00 | 67 | 1027.6 |
| 20260906124021 | 57 | 120 | 0.0 | 0.0 | 0.00 | 0.00 | 0.00 | 67 | 1027.6 |
| 20260906123520 | 57 | 218 | 1.0 | 1.0 | 0.00 | 0.00 | 0.00 | 67 | 1027.5 |
| 20260906123015 | 57 | 203 | 0.0 | 1.0 | 0.00 | 0.00 | 0.00 | 67 | 1027.5 |
| 20260906122509 | 57 | 136 | 0.0 | 1.0 | 0.00 | 0.00 | 0.00 | 67 | 1027.2 |
| 20260906122006 | 57 | 105 | 0.0 | 0.0 | 0.00 | 0.00 | 0.00 | 67 | 1027.3 |
| 20260906121502 | 57 | 123 | 0.0 | 1.0 | 0.00 | 0.00 | 0.00 | 66 | 1027.6 |
| 20260906120958 | 57 | 126 | 0.0 | 0.0 | 0.00 | 0.00 | 0.00 | 66 | 1027.2 |
| 20260906120453 | 57 | 85 | 0.0 | 0.0 | 0.00 | 0.00 | 0.00 | 66 | 1027.5 |
| 20260906115949 | 57 | 201 | 0.0 | 1.0 | 0.00 | 0.00 | 0.00 | 66 | 1027.2 |
| 20260906115444 | 57 | 206 | 0.0 | 1.0 | 0.00 | 0.00 | 0.00 | 66 | 1027.3 |
| 20260906114944 | 56 | 311 | 1.0 | 1.0 | 0.00 | 0.00 | 0.00 | 66 | 1027.3 |
| 20260906114438 | 57 | 315 | 0.0 | 0.0 | 0.00 | 0.00 | 0.00 | 66 | 1027.3 |
| 20260906113935 | 57 | 291 | 0.0 | 0.0 | 0.00 | 0.00 | 0.00 | 65 | 1027.6 |
| 20260906113433 | 57 | 256 | 0.0 | 1.0 | 0.00 | 0.00 | 0.00 | 65 | 1027.2 |
| 20260906112929 | 57 | 249 | 0.0 | 0.0 | 0.00 | 0.00 | 0.00 | 65 | 1027.2 |
| 20260906112424 | 57 | 249 | 0.0 | 1.0 | 0.00 | 0.00 | 0.00 | 65 | 1027.2 |
| 20260906111920 | 57 | 206 | 1.0 | 1.0 | 0.00 | 0.00 | 0.00 | 64 | 1027.5 |
| 20260906111419 | 57 | 125 | 0.0 | 1.0 | 0.00 | 0.00 | 0.00 | 64 | 1027.5 |
| 20260906110914 | 57 | 203 | 0.0 | 1.0 | 0.00 | 0.00 | 0.00 | 62 | 1027.3 |
| 20260906110409 | 58 | 139 | 0.0 | 1.0 | 0.00 | 0.00 | 0.00 | 63 | 1027.2 |
| 20260906105909 | 58 | 207 | 0.0 | 1.0 | 0.00 | 0.00 | 0.00 | 62 | 1027.2 |
| 20260906105404 | 58 | 213 | 1.0 | 1.0 | 0.00 | 0.00 | 0.00 | 62 | 1027.3 |
| 20260906104900 | 58 | 244 | 1.0 | 1.0 | 0.00 | 0.00 | 0.00 | 62 | 1027.5 |
| 20260906104359 | 58 | 213 | 1.0 | 1.0 | 0.00 | 0.00 | 0.00 | 62 | 1027.3 |
| 20260906103857 | 59 | 83 | 0.0 | 1.0 | 0.00 | 0.00 | 0.00 | 61 | 1027.5 |
| 20260906103356 | 59 | 238 | 1.0 | 2.0 | 0.00 | 0.00 | 0.00 | 61 | 1027.3 |
| 20260906102852 | 59 | 116 | 0.0 | 1.0 | 0.00 | 0.00 | 0.00 | 61 | 1027.3 |
| 20260906102351 | 59 | 235 | 1.0 | 2.0 | 0.00 | 0.00 | 0.00 | 61 | 1027.5 |
| 20260906101846 | 59 | 216 | 1.0 | 1.0 | 0.00 | 0.00 | 0.00 | 61 | 1027.6 |
| 20260906101341 | 59 | 125 | 0.0 | 1.0 | 0.00 | 0.00 | 0.00 | 61 | 1027.6 |
| 20260906100837 | 59 | 107 | 0.0 | 0.0 | 0.00 | 0.00 | 0.00 | 60 | 1027.2 |
| 20260906100336 | 60 | 83 | 0.0 | 0.0 | 0.00 | 0.00 | 0.00 | 60 | 1027.5 |
| 20260906095831 | 60 | 213 | 0.0 | 2.0 | 0.00 | 0.00 | 0.00 | 60 | 1027.3 |
| 20260906095327 | 60 | 345 | 1.0 | 1.0 | 0.00 | 0.00 | 0.00 | 60 | 1027.1 |
| 20260906094826 | 60 | 320 | 1.0 | 1.0 | 0.00 | 0.00 | 0.00 | 60 | 1027.1 |
| 20260906094321 | 60 | 222 | 1.0 | 1.0 | 0.00 | 0.00 | 0.00 | 60 | 1027.0 |
| 20260906093817 | 60 | 206 | 1.0 | 1.0 | 0.00 | 0.00 | 0.00 | 59 | 1027.5 |
| 20260906093313 | 61 | 160 | 1.0 | 1.0 | 0.00 | 0.00 | 0.00 | 59 | 1027.3 |
| 20260906092808 | 61 | 142 | 1.0 | 1.0 | 0.00 | 0.00 | 0.00 | 57 | 1027.6 |
| 20260906092305 | 61 | 133 | 0.0 | 1.0 | 0.00 | 0.00 | 0.00 | 57 | 1027.5 |
| 20260906091758 | 61 | 240 | 1.0 | 1.0 | 0.00 | 0.00 | 0.00 | 57 | 1027.3 |
| 20260906091254 | 61 | 161 | 0.0 | 1.0 | 0.00 | 0.00 | 0.00 | 57 | 1027.0 |
| 20260906090750 | 62 | 228 | 2.0 | 2.0 | 0.00 | 0.00 | 0.00 | 57 | 1027.0 |
| 20260906090249 | 62 | 256 | 1.0 | 1.0 | 0.00 | 0.00 | 0.00 | 56 | 1027.2 |
| 20260906085749 | 62 | 227 | 1.0 | 1.0 | 0.00 | 0.00 | 0.00 | 57 | 1027.0 |
| 20260906085248 | 62 | 201 | 1.0 | 2.0 | 0.00 | 0.00 | 0.00 | 56 | 1027.1 |
| 20260906084742 | 62 | 211 | 1.0 | 1.0 | 0.00 | 0.00 | 0.00 | 56 | 1027.0 |
| 20260906084241 | 62 | 212 | 1.0 | 1.0 | 0.00 | 0.00 | 0.00 | 56 | 1027.0 |
| 20260906083737 | 62 | 185 | 1.0 | 1.0 | 0.00 | 0.00 | 0.00 | 56 | 1026.9 |
| 20260906083232 | 63 | 178 | 1.0 | 1.0 | 0.00 | 0.00 | 0.00 | 56 | 1027.0 |
| 20260906082727 | 63 | 205 | 1.0 | 1.0 | 0.00 | 0.00 | 0.00 | 56 | 1027.0 |
| 20260906082222 | 63 | 227 | 1.0 | 1.0 | 0.00 | 0.00 | 0.00 | 55 | 1027.0 |
| 20260906081718 | 63 | 219 | 1.0 | 1.0 | 0.00 | 0.00 | 0.00 | 55 | 1027.1 |
| 20260906081213 | 63 | 189 | 1.0 | 1.0 | 0.00 | 0.00 | 0.00 | 55 | 1027.0 |
| 20260906080710 | 64 | 142 | 1.0 | 2.0 | 0.00 | 0.00 | 0.00 | 55 | 1027.1 |
| 20260906080206 | 64 | 254 | 1.0 | 1.0 | 0.00 | 0.00 | 0.00 | 55 | 1027.1 |
| 20260906075705 | 64 | 255 | 1.0 | 1.0 | 0.00 | 0.00 | 0.00 | 55 | 1027.2 |
| 20260906075200 | 64 | 153 | 1.0 | 2.0 | 0.00 | 0.00 | 0.00 | 54 | 1027.3 |
| 20260906074655 | 64 | 258 | 1.0 | 2.0 | 0.00 | 0.00 | 0.00 | 55 | 1027.1 |
| 20260906074149 | 64 | 88 | 0.0 | 1.0 | 0.00 | 0.00 | 0.00 | 55 | 1027.3 |
| 20260906073644 | 64 | 202 | 1.0 | 1.0 | 0.00 | 0.00 | 0.00 | 54 | 1027.3 |
| 20260906073139 | 64 | 213 | 1.0 | 1.0 | 0.00 | 0.00 | 0.00 | 54 | 1027.2 |
| 20260906072634 | 64 | 155 | 1.0 | 1.0 | 0.00 | 0.00 | 0.00 | 54 | 1027.2 |
| 20260906072130 | 64 | 132 | 0.0 | 1.0 | 0.00 | 0.00 | 0.00 | 54 | 1027.5 |
| 20260906071627 | 65 | 86 | 0.0 | 0.0 | 0.00 | 0.00 | 0.00 | 53 | 1027.2 |
| 20260906071126 | 65 | 132 | 0.0 | 1.0 | 0.00 | 0.00 | 0.00 | 53 | 1027.2 |
| 20260906070623 | 66 | 103 | 0.0 | 1.0 | 0.00 | 0.00 | 0.00 | 52 | 1027.1 |
| 20260906070119 | 66 | 240 | 0.0 | 1.0 | 0.00 | 0.00 | 0.00 | 52 | 1027.1 |
| 20260906065618 | 67 | 224 | 1.0 | 1.0 | 0.00 | 0.00 | 0.00 | 51 | 1027.2 |
| 20260906065113 | 67 | 208 | 1.0 | 2.0 | 0.00 | 0.00 | 0.00 | 50 | 1027.2 |
| 20260906064603 | 68 | 151 | 1.0 | 1.0 | 0.00 | 0.00 | 0.00 | 50 | 1027.2 |
| 20260906064058 | 68 | 154 | 1.0 | 1.0 | 0.00 | 0.00 | 0.00 | 49 | 1027.2 |
| 20260906063553 | 68 | 213 | 1.0 | 1.0 | 0.00 | 0.00 | 0.00 | 49 | 1027.3 |
| 20260906063049 | 68 | 74 | 0.0 | 1.0 | 0.00 | 0.00 | 0.00 | 48 | 1027.3 |
| 20260906062544 | 69 | 43 | 0.0 | 0.0 | 0.00 | 0.00 | 0.00 | 47 | 1027.2 |
| 20260906062038 | 69 | 143 | 0.0 | 1.0 | 0.00 | 0.00 | 0.00 | 47 | 1027.1 |
| 20260906061535 | 69 | 165 | 1.0 | 1.0 | 0.00 | 0.00 | 0.00 | 48 | 1027.1 |
| 20260906061034 | 68 | 241 | 1.0 | 2.0 | 0.00 | 0.00 | 0.00 | 48 | 1027.5 |
| 20260906060531 | 68 | 132 | 0.0 | 1.0 | 0.00 | 0.00 | 0.00 | 48 | 1027.5 |
| 20260906060028 | 69 | 161 | 1.0 | 1.0 | 0.00 | 0.00 | 0.00 | 47 | 1027.8 |
| 20260906055523 | 69 | 247 | 1.0 | 1.0 | 0.00 | 0.00 | 0.00 | 47 | 1027.7 |
| 20260906055018 | 70 | 224 | 1.0 | 1.0 | 0.00 | 0.00 | 0.00 | 46 | 1027.9 |
| 20260906054513 | 71 | 127 | 1.0 | 1.0 | 0.00 | 0.00 | 0.00 | 45 | 1028.1 |
| 20260906054008 | 72 | 110 | 0.0 | 1.0 | 0.00 | 0.00 | 0.00 | 43 | 1027.9 |
| 20260906053504 | 73 | 251 | 1.0 | 1.0 | 0.00 | 0.00 | 0.00 | 42 | 1027.9 |
| 20260906053000 | 73 | 240 | 3.0 | 3.0 | 0.00 | 0.00 | 0.00 | 41 | 1028.2 |
| 20260906052455 | 73 | 233 | 1.0 | 2.0 | 0.00 | 0.00 | 0.00 | 41 | 1028.4 |
| 20260906051952 | 72 | 271 | 1.0 | 3.0 | 0.00 | 0.00 | 0.00 | 42 | 1028.1 |
| 20260906051447 | 72 | 21 | 2.0 | 3.0 | 0.00 | 0.00 | 0.00 | 43 | 1027.8 |
| 20260906050943 | 72 | 258 | 0.0 | 1.0 | 0.00 | 0.00 | 0.00 | 43 | 1027.8 |
| 20260906050442 | 73 | 36 | 0.0 | 1.0 | 0.00 | 0.00 | 0.00 | 42 | 1027.5 |
| 20260906045942 | 73 | 52 | 0.0 | 1.0 | 0.00 | 0.00 | 0.00 | 42 | 1027.7 |
| 20260906045441 | 73 | 338 | 0.0 | 0.0 | 0.00 | 0.00 | 0.00 | 42 | 1027.3 |
| 20260906044937 | 73 | 254 | 1.0 | 1.0 | 0.00 | 0.00 | 0.00 | 41 | 1027.1 |
| 20260906044432 | 74 | 233 | 2.0 | 2.0 | 0.00 | 0.00 | 0.00 | 41 | 1027.2 |
| 20260906043927 | 74 | 177 | 3.0 | 3.0 | 0.00 | 0.00 | 0.00 | 41 | 1026.9 |
| 20260906043423 | 75 | 233 | 4.0 | 7.0 | 0.00 | 0.00 | 0.00 | 38 | 1026.9 |
| 20260906042919 | 74 | 173 | 0.0 | 2.0 | 0.00 | 0.00 | 0.00 | 39 | 1026.9 |
| 20260906042418 | 74 | 206 | 1.0 | 3.0 | 0.00 | 0.00 | 0.00 | 39 | 1026.6 |
| 20260906041913 | 74 | 121 | 2.0 | 6.0 | 0.00 | 0.00 | 0.00 | 39 | 1027.0 |
| 20260906041409 | 75 | 233 | 3.0 | 5.0 | 0.00 | 0.00 | 0.00 | 39 | 1026.9 |
| 20260906040909 | 75 | 277 | 2.0 | 6.0 | 0.00 | 0.00 | 0.00 | 38 | 1027.1 |
| 20260906040404 | 74 | 206 | 1.0 | 8.0 | 0.00 | 0.00 | 0.00 | 39 | 1027.0 |
| 20260906035859 | 74 | 279 | 5.0 | 15.0 | 0.00 | 0.00 | 0.00 | 38 | 1027.0 |
| 20260906035354 | 74 | 276 | 3.0 | 6.0 | 0.00 | 0.00 | 0.00 | 38 | 1027.2 |
| 20260906034850 | 74 | 226 | 2.0 | 3.0 | 0.00 | 0.00 | 0.00 | 38 | 1027.1 |
| 20260906034344 | 73 | 225 | 4.0 | 8.0 | 0.00 | 0.00 | 0.00 | 38 | 1026.6 |
| 20260906033840 | 72 | 120 | 4.0 | 5.0 | 0.00 | 0.00 | 0.00 | 38 | 1026.9 |
| 20260906033339 | 72 | 130 | 1.0 | 1.0 | 0.00 | 0.00 | 0.00 | 40 | 1026.6 |
| 20260906032836 | 73 | 240 | 1.0 | 1.0 | 0.00 | 0.00 | 0.00 | 38 | 1026.4 |
| 20260906032331 | 74 | 56 | 0.0 | 2.0 | 0.00 | 0.00 | 0.00 | 37 | 1026.4 |
| 20260906031826 | 74 | 116 | 0.0 | 2.0 | 0.00 | 0.00 | 0.00 | 37 | 1026.6 |
| 20260906031322 | 75 | 248 | 2.0 | 5.0 | 0.00 | 0.00 | 0.00 | 36 | 1026.4 |
| 20260906030821 | 75 | 214 | 1.0 | 6.0 | 0.00 | 0.00 | 0.00 | 36 | 1026.5 |
| 20260906030317 | 75 | 231 | 2.0 | 2.0 | 0.00 | 0.00 | 0.00 | 36 | 1026.5 |
| 20260906025811 | 75 | 317 | 2.0 | 2.0 | 0.00 | 0.00 | 0.00 | 36 | 1026.5 |
| 20260906025306 | 75 | 239 | 3.0 | 5.0 | 0.00 | 0.00 | 0.00 | 36 | 1026.1 |
| 20260906024804 | 74 | 249 | 2.0 | 5.0 | 0.00 | 0.00 | 0.00 | 37 | 1026.0 |
| 20260906024304 | 74 | 177 | 2.0 | 5.0 | 0.00 | 0.00 | 0.00 | 37 | 1026.2 |
| 20260906023759 | 73 | 135 | 3.0 | 5.0 | 0.00 | 0.00 | 0.00 | 38 | 1026.0 |
| 20260906023254 | 73 | 139 | 2.0 | 6.0 | 0.00 | 0.00 | 0.00 | 39 | 1026.0 |
| 20260906022750 | 73 | 249 | 3.0 | 3.0 | 0.00 | 0.00 | 0.00 | 40 | 1026.2 |
| 20260906022245 | 73 | 242 | 3.0 | 5.0 | 0.00 | 0.00 | 0.00 | 39 | 1026.1 |
| 20260906021741 | 73 | 226 | 1.0 | 2.0 | 0.00 | 0.00 | 0.00 | 41 | 1025.9 |
| 20260906021240 | 74 | 206 | 1.0 | 2.0 | 0.00 | 0.00 | 0.00 | 41 | 1026.1 |
| 20260906020734 | 74 | 112 | 1.0 | 2.0 | 0.00 | 0.00 | 0.00 | 40 | 1026.2 |
| 20260906020229 | 75 | 272 | 1.0 | 2.0 | 0.00 | 0.00 | 0.00 | 40 | 1026.1 |
| 20260906015724 | 75 | 82 | 0.0 | 2.0 | 0.00 | 0.00 | 0.00 | 41 | 1026.2 |
| 20260906015222 | 75 | 239 | 3.0 | 3.0 | 0.00 | 0.00 | 0.00 | 40 | 1026.4 |
| 20260906014717 | 77 | 258 | 2.0 | 3.0 | 0.00 | 0.00 | 0.00 | 39 | 1026.4 |
| 20260906014213 | 77 | 203 | 1.0 | 3.0 | 0.00 | 0.00 | 0.00 | 35 | 1026.2 |
| 20260906013709 | 77 | 265 | 1.0 | 6.0 | 0.00 | 0.00 | 0.00 | 35 | 1026.1 |
| 20260906013208 | 77 | 251 | 5.0 | 7.0 | 0.00 | 0.00 | 0.00 | 35 | 1026.0 |
| 20260906012703 | 77 | 282 | 1.0 | 7.0 | 0.00 | 0.00 | 0.00 | 35 | 1026.2 |
| 20260906012157 | 77 | 225 | 1.0 | 5.0 | 0.00 | 0.00 | 0.00 | 36 | 1026.0 |
| 20260906011653 | 77 | 250 | 1.0 | 6.0 | 0.00 | 0.00 | 0.00 | 36 | 1026.2 |
| 20260906011148 | 77 | 238 | 3.0 | 6.0 | 0.00 | 0.00 | 0.00 | 36 | 1025.9 |
| 20260906010637 | 77 | 146 | 1.0 | 2.0 | 0.00 | 0.00 | 0.00 | 36 | 1026.0 |
| 20260906010133 | 76 | 203 | 1.0 | 6.0 | 0.00 | 0.00 | 0.00 | 36 | 1026.2 |
| 20260906005632 | 77 | 207 | 2.0 | 8.0 | 0.00 | 0.00 | 0.00 | 37 | 1026.2 |
| 20260906005127 | 77 | 285 | 2.0 | 2.0 | 0.00 | 0.00 | 0.00 | 37 | 1026.2 |
| 20260906004626 | 77 | 50 | 0.0 | 2.0 | 0.00 | 0.00 | 0.00 | 36 | 1026.2 |
| 20260906004121 | 78 | 222 | 1.0 | 2.0 | 0.00 | 0.00 | 0.00 | 36 | 1026.4 |
| 20260906003616 | 78 | 173 | 0.0 | 1.0 | 0.00 | 0.00 | 0.00 | 36 | 1026.1 |
| 20260906003112 | 78 | 79 | 1.0 | 3.0 | 0.00 | 0.00 | 0.00 | 35 | 1026.4 |
| 20260906002607 | 78 | 124 | 1.0 | 3.0 | 0.00 | 0.00 | 0.00 | 34 | 1026.4 |
| 20260906002101 | 78 | 99 | 0.0 | 3.0 | 0.00 | 0.00 | 0.00 | 35 | 1026.5 |
| 20260906001556 | 78 | 62 | 1.0 | 1.0 | 0.00 | 0.00 | 0.00 | 35 | 1026.6 |
| 20260906001051 | 78 | 248 | 0.0 | 2.0 | 0.00 | 0.00 | 0.00 | 35 | 1026.6 |
| 20260906000547 | 78 | 276 | 1.0 | 3.0 | 0.00 | 0.00 | 0.00 | 35 | 1026.5 |
| 20260906000042 | 78 | 249 | 3.0 | 5.0 | 0.00 | 0.00 | 0.00 | 34 | 1026.4 |
| 20260905235541 | 79 | 249 | 2.0 | 7.0 | 0.00 | 0.00 | 0.00 | 34 | 1026.2 |
| 20260905235036 | 80 | 231 | 6.0 | 8.0 | 0.00 | 0.00 | 0.00 | 33 | 1026.4 |
| 20260905234532 | 81 | 201 | 2.0 | 2.0 | 0.00 | 0.00 | 0.00 | 30 | 1026.2 |
| 20260905234027 | 81 | 45 | 0.0 | 0.0 | 0.00 | 0.00 | 0.00 | 30 | 1026.2 |
| 20260905233522 | 80 | 52 | 0.0 | 2.0 | 0.00 | 0.00 | 0.00 | 30 | 1026.4 |
| 20260905233021 | 80 | 193 | 1.0 | 2.0 | 0.00 | 0.00 | 0.00 | 31 | 1026.2 |
| 20260905232517 | 81 | 270 | 5.0 | 8.0 | 0.00 | 0.00 | 0.00 | 30 | 1026.2 |
| 20260905232013 | 81 | 241 | 1.0 | 2.0 | 0.00 | 0.00 | 0.00 | 30 | 1026.1 |
| 20260905231508 | 81 | 51 | 0.0 | 0.0 | 0.00 | 0.00 | 0.00 | 29 | 1026.0 |
| 20260905231004 | 81 | 38 | 1.0 | 2.0 | 0.00 | 0.00 | 0.00 | 29 | 1025.8 |
| 20260905230503 | 82 | 267 | 3.0 | 8.0 | 0.00 | 0.00 | 0.00 | 29 | 1026.0 |
| 20260905230001 | 83 | 299 | 2.0 | 3.0 | 0.00 | 0.00 | 0.00 | 27 | 1025.8 |
| 20260905225456 | 84 | 79 | 0.0 | 0.0 | 0.00 | 0.00 | 0.00 | 26 | 1025.8 |
| 20260905224951 | 84 | 60 | 0.0 | 1.0 | 0.00 | 0.00 | 0.00 | 26 | 1025.5 |
| 20260905224446 | 84 | 354 | 0.0 | 3.0 | 0.00 | 0.00 | 0.00 | 26 | 1025.4 |
| 20260905223945 | 84 | 340 | 1.0 | 2.0 | 0.00 | 0.00 | 0.00 | 26 | 1025.6 |
| 20260905223443 | 84 | 23 | 1.0 | 2.0 | 0.00 | 0.00 | 0.00 | 26 | 1025.5 |
| 20260905222943 | 84 | 5 | 2.0 | 2.0 | 0.00 | 0.00 | 0.00 | 26 | 1025.4 |
| 20260905222438 | 84 | 70 | 0.0 | 2.0 | 0.00 | 0.00 | 0.00 | 26 | 1025.8 |
| 20260905221934 | 85 | 0 | 3.0 | 5.0 | 0.00 | 0.00 | 0.00 | 26 | 1025.5 |